^^
Station Historical Data
 
Daily Summary for August 18, 2018 Units:  English    Metric   Both
« Previous Day
Next Day »
Daily Weekly Monthly Yearly Custom
  Current: High: Low: Average:
Temperature: 17.0 °F TemperatureC °F 12.9 °F 17.9 °F
Dew Point: 15.5 °F DewpointC °F 11.5 °F 15.7 °F
Humidity: 91% Humidity% 73% 87%
Wind Speed: 0.0mph WindSpeedKMHmph 0.0mph 0.1mph
Wind Gust: 0.0mph WindSpeedGustKMHmph - -
WindCalm - - SSW
Pressure: 1012.1 in PressurehPa in 1012.0 in -
Precipitation: 3.8 in      
Historical Graphs
 
 
Tabular Data for August 18, 2018
Time Temperature Dew Point Pressure Wind Wind Speed Wind Gust Humidity Rainfall Rate (Hourly) solar Conditions
TemperatureC °F DewpointC °F PressurehPa in Calm     Humidity% HourlyPrecipMM in SoftwareType W/m2 Conditions
00:04 15.1 °F 12.9 °F 1015.7 in Calm     87% 0.0 in WeatherDisplay:10.37 W/m2 FEW
00:09 15.1 °F 12.9 °F 1015.7 in Calm     87% 0.0 in WeatherDisplay:10.37 W/m2 FEW
00:14 14.9 °F 13.0 °F 1015.7 in Calm     88% 0.0 in WeatherDisplay:10.37 W/m2 FEW
00:19 14.9 °F 13.0 °F 1015.7 in Calm     88% 0.0 in WeatherDisplay:10.37 W/m2 FEW
00:24 14.9 °F 13.0 °F 1015.6 in Calm     88% 0.0 in WeatherDisplay:10.37 W/m2 FEW
00:29 14.9 °F 13.0 °F 1015.6 in Calm     88% 0.0 in WeatherDisplay:10.37 W/m2 FEW
00:34 14.9 °F 13.0 °F 1015.5 in Calm     88% 0.0 in WeatherDisplay:10.37 W/m2 FEW
00:39 15.0 °F 13.0 °F 1015.5 in Calm     88% 0.0 in WeatherDisplay:10.37 W/m2 FEW
00:44 15.0 °F 13.0 °F 1015.5 in Calm     88% 0.0 in WeatherDisplay:10.37 W/m2 FEW
00:49 15.0 °F 13.0 °F 1015.5 in Calm     88% 0.0 in WeatherDisplay:10.37 W/m2 FEW
00:54 15.0 °F 13.0 °F 1015.5 in Calm     88% 0.0 in WeatherDisplay:10.37 W/m2 FEW
00:59 15.0 °F 13.0 °F 1015.5 in Calm     88% 0.0 in WeatherDisplay:10.37 W/m2 FEW
01:04 15.0 °F 13.0 °F 1015.5 in Calm     88% 0.0 in WeatherDisplay:10.37 W/m2 CLR
01:09 15.0 °F 13.0 °F 1015.4 in Calm     88% 0.0 in WeatherDisplay:10.37 W/m2 CLR
01:14 15.0 °F 13.6 °F 1015.4 in Calm     91% 0.0 in WeatherDisplay:10.37 W/m2 CLR
01:19 15.0 °F 13.6 °F 1015.4 in Calm     91% 0.0 in WeatherDisplay:10.37 W/m2 CLR
01:24 14.9 °F 13.2 °F 1015.3 in Calm     89% 0.0 in WeatherDisplay:10.37 W/m2 CLR
01:29 14.9 °F 13.1 °F 1015.4 in Calm     89% 0.0 in WeatherDisplay:10.37 W/m2 CLR
01:34 14.8 °F 13.1 °F 1015.4 in Calm     89% 0.0 in WeatherDisplay:10.37 W/m2 CLR
01:39 14.8 °F 13.1 °F 1015.3 in Calm     89% 0.0 in WeatherDisplay:10.37 W/m2 CLR
01:44 14.8 °F 13.1 °F 1015.3 in Calm     89% 0.0 in WeatherDisplay:10.37 W/m2 CLR
01:49 14.8 °F 13.1 °F 1015.2 in Calm     89% 0.0 in WeatherDisplay:10.37 W/m2 CLR
01:54 14.8 °F 13.1 °F 1015.2 in Calm     89% 0.0 in WeatherDisplay:10.37 W/m2 CLR
01:59 14.8 °F 13.1 °F 1015.2 in Calm     89% 0.0 in WeatherDisplay:10.37 W/m2 CLR
02:04 14.8 °F 13.1 °F 1015.2 in Calm     89% 0.0 in WeatherDisplay:10.37 W/m2 SCT
02:09 14.8 °F 13.0 °F 1015.2 in Calm     89% 0.0 in WeatherDisplay:10.37 W/m2 SCT
02:14 14.8 °F 13.0 °F 1015.0 in Calm     89% 0.0 in WeatherDisplay:10.37 W/m2 SCT
02:19 14.7 °F 12.9 °F 1015.0 in Calm     89% 0.0 in WeatherDisplay:10.37 W/m2 SCT
02:24 14.7 °F 12.9 °F 1015.0 in Calm     89% 0.0 in WeatherDisplay:10.37 W/m2 SCT
02:29 14.7 °F 12.9 °F 1014.9 in Calm     89% 0.0 in WeatherDisplay:10.37 W/m2 SCT
02:34 14.7 °F 12.9 °F 1014.9 in Calm     89% 0.0 in WeatherDisplay:10.37 W/m2 SCT
02:39 14.6 °F 12.8 °F 1014.9 in Calm     89% 0.0 in WeatherDisplay:10.37 W/m2 SCT
02:44 14.6 °F 12.8 °F 1014.9 in Calm     89% 0.0 in WeatherDisplay:10.37 W/m2 SCT
02:49 14.5 °F 12.7 °F 1014.9 in Calm     89% 0.0 in WeatherDisplay:10.37 W/m2 SCT
02:54 14.4 °F 12.7 °F 1014.9 in Calm     89% 0.0 in WeatherDisplay:10.37 W/m2 SCT
02:59 14.4 °F 12.8 °F 1014.8 in Calm     90% 0.0 in WeatherDisplay:10.37 W/m2 SCT
03:04 14.4 °F 12.8 °F 1014.8 in Calm     90% 0.0 in WeatherDisplay:10.37 W/m2 SCT
03:09 14.3 °F 12.7 °F 1014.8 in Calm     90% 0.0 in WeatherDisplay:10.37 W/m2 SCT
03:14 14.3 °F 12.7 °F 1014.8 in Calm     90% 0.0 in WeatherDisplay:10.37 W/m2 SCT
03:19 14.3 °F 12.7 °F 1014.8 in Calm     90% 0.0 in WeatherDisplay:10.37 W/m2 SCT
03:24 14.3 °F 12.7 °F 1014.7 in Calm     90% 0.0 in WeatherDisplay:10.37 W/m2 SCT
03:29 14.3 °F 12.7 °F 1014.7 in Calm     90% 0.0 in WeatherDisplay:10.37 W/m2 SCT
03:34 14.3 °F 12.8 °F 1014.7 in Calm     91% 0.0 in WeatherDisplay:10.37 W/m2 FEW
03:39 14.2 °F 12.6 °F 1014.7 in Calm     90% 0.0 in WeatherDisplay:10.37 W/m2 FEW
03:44 14.2 °F 12.6 °F 1014.8 in Calm     90% 0.0 in WeatherDisplay:10.37 W/m2 FEW
03:49 14.2 °F 12.8 °F 1014.7 in Calm     91% 0.0 in WeatherDisplay:10.37 W/m2 FEW
03:54 14.2 °F 12.6 °F 1014.7 in Calm     90% 0.0 in WeatherDisplay:10.37 W/m2 FEW
03:59 14.2 °F 12.6 °F 1014.6 in Calm     90% 0.0 in WeatherDisplay:10.37 W/m2 FEW
04:04 14.2 °F 12.8 °F 1014.6 in Calm     91% 0.0 in WeatherDisplay:10.37 W/m2 SCT
04:09 14.2 °F 12.8 °F 1014.6 in Calm     91% 0.0 in WeatherDisplay:10.37 W/m2 SCT
04:14 14.2 °F 12.8 °F 1014.6 in Calm     91% 0.0 in WeatherDisplay:10.37 W/m2 SCT
04:19 14.2 °F 12.7 °F 1014.6 in Calm     91% 0.0 in WeatherDisplay:10.37 W/m2 SCT
04:24 14.1 °F 12.6 °F 1014.6 in Calm     91% 0.0 in WeatherDisplay:10.37 W/m2 SCT
04:29 14.0 °F 12.4 °F 1014.5 in Calm     90% 0.0 in WeatherDisplay:10.37 W/m2 SCT
04:34 13.9 °F 12.3 °F 1014.6 in Calm     90% 0.0 in WeatherDisplay:10.37 W/m2 SCT
04:39 13.9 °F 12.3 °F 1014.6 in Calm     90% 0.0 in WeatherDisplay:10.37 W/m2 SCT
04:44 13.8 °F 12.4 °F 1014.5 in Calm     91% 0.0 in WeatherDisplay:10.37 W/m2 SCT
04:49 13.8 °F 12.2 °F 1014.5 in Calm     90% 0.0 in WeatherDisplay:10.37 W/m2 SCT
04:54 13.7 °F 12.1 °F 1014.5 in Calm     90% 0.0 in WeatherDisplay:10.37 W/m2 SCT
04:59 13.6 °F 11.9 °F 1014.5 in Calm     90% 0.0 in WeatherDisplay:10.37 W/m2 SCT
05:04 13.5 °F 12.1 °F 1014.5 in Calm     91% 0.0 in WeatherDisplay:10.37 W/m2 FEW
05:09 13.4 °F 12.0 °F 1014.5 in Calm     91% 0.0 in WeatherDisplay:10.37 W/m2 FEW
05:14 13.4 °F 11.9 °F 1014.5 in Calm     91% 0.0 in WeatherDisplay:10.37 W/m2 FEW
05:19 13.3 °F 11.9 °F 1014.5 in Calm     91% 0.0 in WeatherDisplay:10.37 W/m2 FEW
05:24 13.3 °F 11.8 °F 1014.5 in Calm     91% 0.0 in WeatherDisplay:10.37 W/m2 FEW
05:29 13.3 °F 11.8 °F 1014.5 in Calm     91% 0.0 in WeatherDisplay:10.37 W/m2 FEW
05:34 13.2 °F 11.8 °F 1014.4 in Calm     91% 0.0 in WeatherDisplay:10.37 W/m2 FEW
05:39 13.2 °F 11.7 °F 1014.4 in Calm     91% 0.0 in WeatherDisplay:10.37 W/m2 FEW
05:44 13.1 °F 11.7 °F 1014.4 in Calm     91% 0.0 in WeatherDisplay:10.37 W/m2 FEW
05:49 13.1 °F 11.6 °F 1014.4 in Calm     91% 0.0 in WeatherDisplay:10.37 W/m2 FEW
05:54 13.0 °F 11.6 °F 1014.3 in Calm     91% 0.0 in WeatherDisplay:10.37 W/m2 FEW
05:59 13.0 °F 11.6 °F 1014.3 in Calm     91% 0.0 in WeatherDisplay:10.37 W/m2 FEW
06:04 12.9 °F 11.5 °F 1014.3 in Calm     91% 0.0 in WeatherDisplay:10.37 W/m2 FEW
06:09 12.9 °F 11.5 °F 1014.3 in Calm     91% 0.0 in WeatherDisplay:10.37 W/m2 FEW
06:14 13.0 °F 11.6 °F 1014.3 in Calm     91% 0.0 in WeatherDisplay:10.37 W/m2 FEW
06:19 13.0 °F 11.6 °F 1014.3 in Calm     91% 0.0 in WeatherDisplay:10.37 W/m2 FEW
06:24 13.0 °F 11.6 °F 1014.2 in Calm     91% 0.0 in WeatherDisplay:10.37 W/m2 FEW
06:29 13.1 °F 11.6 °F 1014.1 in Calm     91% 0.0 in WeatherDisplay:10.37 W/m2 FEW
06:34 13.1 °F 11.6 °F 1014.1 in Calm     91% 0.0 in WeatherDisplay:10.37 W/m2 FEW
06:39 13.2 °F 11.7 °F 1014.2 in Calm     91% 0.0 in WeatherDisplay:10.37 W/m2 FEW
06:44 13.2 °F 11.8 °F 1014.2 in Calm     91% 0.0 in WeatherDisplay:10.37 W/m2 FEW
06:49 13.3 °F 11.9 °F 1014.3 in Calm     91% 0.0 in WeatherDisplay:10.37 W/m2 FEW
06:54 13.4 °F 12.0 °F 1014.3 in Calm     91% 0.0 in WeatherDisplay:10.37 W/m2 FEW
06:59 13.7 °F 12.2 °F 1014.3 in Calm     91% 0.0 in WeatherDisplay:10.37 W/m2 FEW
07:04 13.9 °F 12.5 °F 1014.3 in Calm     91% 0.0 in WeatherDisplay:10.37 W/m2 FEW
07:09 14.2 °F 12.7 °F 1014.4 in Calm     91% 0.0 in WeatherDisplay:10.37 W/m2 FEW
07:14 14.4 °F 12.9 °F 1014.4 in Calm     91% 0.0 in WeatherDisplay:10.37 W/m2 FEW
07:19 14.7 °F 13.2 °F 1014.3 in Calm     91% 0.0 in WeatherDisplay:10.37 W/m2 FEW
07:24 14.8 °F 13.4 °F 1014.3 in Calm     91% 0.0 in WeatherDisplay:10.37 W/m2 FEW
07:29 15.1 °F 13.6 °F 1014.3 in Calm     91% 0.0 in WeatherDisplay:10.37 W/m2 FEW
07:34 15.3 °F 13.9 °F 1014.2 in Calm     91% 0.0 in WeatherDisplay:10.37 W/m2 FEW
07:39 15.6 °F 14.2 °F 1014.2 in Calm     91% 0.0 in WeatherDisplay:10.37 W/m2 FEW
07:44 15.9 °F 14.5 °F 1014.2 in South 0.2 mph 1.6 mph 91% 0.0 in WeatherDisplay:10.37 W/m2 FEW
07:49 16.2 °F 14.8 °F 1014.2 in Calm     91% 0.0 in WeatherDisplay:10.37 W/m2 FEW
07:54 16.5 °F 15.0 °F 1014.3 in Calm     91% 0.0 in WeatherDisplay:10.37 W/m2 FEW
07:59 16.7 °F 15.2 °F 1014.3 in Calm     91% 0.0 in WeatherDisplay:10.37 W/m2 FEW
08:04 17.1 °F 15.6 °F 1014.3 in Calm     91% 0.0 in WeatherDisplay:10.37 W/m2 FEW
08:09 17.5 °F 16.0 °F 1014.3 in Calm     91% 0.0 in WeatherDisplay:10.37 W/m2 FEW
08:14 17.8 °F 16.3 °F 1014.1 in South 0.2 mph 1.6 mph 91% 0.0 in WeatherDisplay:10.37 W/m2 FEW
08:19 18.3 °F 16.8 °F 1014.2 in Calm   1.6 mph 91% 0.0 in WeatherDisplay:10.37 W/m2 FEW
08:24 18.8 °F 17.3 °F 1014.3 in Calm     91% 0.0 in WeatherDisplay:10.37 W/m2 FEW
08:29 19.3 °F 17.5 °F 1014.3 in Calm     89% 0.0 in WeatherDisplay:10.37 W/m2 FEW
08:34 19.8 °F 17.8 °F 1014.2 in NW 1.4 mph 6.4 mph 88% 0.0 in WeatherDisplay:10.37 W/m2 FEW
08:39 20.2 °F 17.6 °F 1014.2 in South 0.2 mph 1.6 mph 85% 0.0 in WeatherDisplay:10.37 W/m2 FEW
08:44 20.7 °F 17.9 °F 1014.2 in Calm     84% 0.0 in WeatherDisplay:10.37 W/m2 FEW
08:49 21.2 °F 17.8 °F 1014.2 in ENE 0.3 mph 5.6 mph 81% 0.0 in WeatherDisplay:10.37 W/m2 FEW
08:54 21.3 °F 17.7 °F 1014.1 in Calm   1.9 mph 80% 0.0 in WeatherDisplay:10.37 W/m2 FEW
08:59 21.4 °F 17.8 °F 1014.1 in Calm     80% 0.0 in WeatherDisplay:10.37 W/m2 FEW
09:04 21.4 °F 17.8 °F 1014.0 in Calm     80% 0.0 in WeatherDisplay:10.37 W/m2 SCT
09:09 21.4 °F 17.7 °F 1014.1 in South 0.8 mph 5.6 mph 79% 0.0 in WeatherDisplay:10.37 W/m2 SCT
09:14 21.6 °F 17.3 °F 1014.1 in Calm     77% 0.0 in WeatherDisplay:10.37 W/m2 SCT
09:19 21.7 °F 17.4 °F 1014.1 in Calm   1.9 mph 77% 0.0 in WeatherDisplay:10.37 W/m2 SCT
09:24 21.7 °F 17.4 °F 1014.1 in Calm   1.9 mph 77% 0.0 in WeatherDisplay:10.37 W/m2 SCT
09:29 21.6 °F 17.2 °F 1014.1 in Calm     76% 0.0 in WeatherDisplay:10.37 W/m2 SCT
09:34 21.6 °F 17.2 °F 1014.1 in Calm     76% 0.0 in WeatherDisplay:10.37 W/m2 BKN
09:39 21.6 °F 17.2 °F 1014.2 in South 3.5 mph 13.0 mph 76% 0.0 in WeatherDisplay:10.37 W/m2 BKN
09:44 21.7 °F 17.1 °F 1014.2 in NNW 1.1 mph 6.4 mph 75% 0.0 in WeatherDisplay:10.37 W/m2 BKN
09:49 21.7 °F 17.1 °F 1014.2 in Calm     75% 0.0 in WeatherDisplay:10.37 W/m2 BKN
09:54 21.7 °F 17.3 °F 1014.2 in Calm   1.9 mph 76% 0.0 in WeatherDisplay:10.37 W/m2 BKN
09:59 21.8 °F 17.4 °F 1014.3 in Calm     76% 0.0 in WeatherDisplay:10.37 W/m2 BKN
10:04 21.8 °F 17.3 °F 1014.2 in Calm     76% 0.0 in WeatherDisplay:10.37 W/m2 BKN
10:09 21.7 °F 17.3 °F 1014.2 in Calm     76% 0.0 in WeatherDisplay:10.37 W/m2 BKN
10:14 21.5 °F 17.3 °F 1014.2 in Calm     77% 0.0 in WeatherDisplay:10.37 W/m2 BKN
10:19 21.4 °F 17.4 °F 1014.2 in Calm   1.9 mph 78% 0.0 in WeatherDisplay:10.37 W/m2 BKN
10:24 21.3 °F 17.6 °F 1014.2 in SE 0.5 mph 5.6 mph 79% 0.0 in WeatherDisplay:10.37 W/m2 BKN
10:29 21.3 °F 17.6 °F 1014.2 in SSE 0.3 mph 3.7 mph 79% 0.0 in WeatherDisplay:10.37 W/m2 BKN
10:34 21.3 °F 17.5 °F 1014.2 in Calm   5.6 mph 79% 0.0 in WeatherDisplay:10.37 W/m2 BKN
10:39 21.3 °F 17.7 °F 1014.1 in SSE 1.3 mph 5.6 mph 80% 0.0 in WeatherDisplay:10.37 W/m2 BKN
10:44 21.4 °F 17.7 °F 1014.3 in Calm     79% 0.0 in WeatherDisplay:10.37 W/m2 BKN
10:49 21.6 °F 17.8 °F 1014.2 in Calm   5.6 mph 79% 0.0 in WeatherDisplay:10.37 W/m2 BKN
10:54 21.8 °F 18.0 °F 1014.3 in SSW 1.9 mph 5.6 mph 79% 0.0 in WeatherDisplay:10.37 W/m2 BKN
10:59 21.8 °F 17.8 °F 1014.2 in Calm   1.6 mph 78% 0.0 in WeatherDisplay:10.37 W/m2 BKN
11:04 22.1 °F 18.1 °F 1014.1 in Calm   9.3 mph 78% 0.0 in WeatherDisplay:10.37 W/m2 BKN
11:09 22.6 °F 18.3 °F 1014.1 in SE 0.2 mph 1.6 mph 77% 0.0 in WeatherDisplay:10.37 W/m2 BKN
11:14 22.7 °F 18.3 °F 1014.1 in Calm   1.9 mph 76% 0.0 in WeatherDisplay:10.37 W/m2 BKN
11:19 22.8 °F 18.2 °F 1014.0 in SE 0.2 mph 1.9 mph 75% 0.0 in WeatherDisplay:10.37 W/m2 BKN
11:24 22.9 °F 18.3 °F 1013.9 in South 0.5 mph 3.2 mph 75% 0.0 in WeatherDisplay:10.37 W/m2 BKN
11:29 22.9 °F 18.3 °F 1013.9 in North 0.6 mph 3.2 mph 75% 0.0 in WeatherDisplay:10.37 W/m2 BKN
11:34 22.9 °F 18.2 °F 1014.0 in Calm     75% 0.0 in WeatherDisplay:10.37 W/m2 SCT
11:39 22.7 °F 18.0 °F 1014.0 in Calm   1.9 mph 75% 0.0 in WeatherDisplay:10.37 W/m2 SCT
11:44 22.6 °F 18.1 °F 1014.0 in Calm   1.6 mph 76% 0.0 in WeatherDisplay:10.37 W/m2 SCT
11:49 22.4 °F 17.9 °F 1014.0 in Calm   1.9 mph 76% 0.0 in WeatherDisplay:10.37 W/m2 SCT
11:54 22.3 °F 18.1 °F 1014.0 in Calm     77% 0.0 in WeatherDisplay:10.37 W/m2 SCT
11:59 22.6 °F 18.3 °F 1014.0 in Calm   1.9 mph 77% 0.0 in WeatherDisplay:10.37 W/m2 SCT
12:04 22.8 °F 18.3 °F 1014.0 in Calm     76% 0.0 in WeatherDisplay:10.37 W/m2 SCT
12:09 22.8 °F 18.3 °F 1014.0 in Calm   3.7 mph 76% 0.0 in WeatherDisplay:10.37 W/m2 SCT
12:14 22.7 °F 18.0 °F 1014.1 in NNW 2.3 mph 5.6 mph 75% 0.0 in WeatherDisplay:10.37 W/m2 SCT
12:19 22.5 °F 17.6 °F 1014.1 in Calm   5.6 mph 74% 0.0 in WeatherDisplay:10.37 W/m2 SCT
12:24 22.1 °F 17.0 °F 1014.2 in Calm     73% 0.0 in WeatherDisplay:10.37 W/m2 SCT
12:29 21.7 °F 16.8 °F 1014.1 in Calm     74% 0.0 in WeatherDisplay:10.37 W/m2 SCT
12:34 21.6 °F 16.9 °F 1014.3 in Calm     75% 0.0 in WeatherDisplay:10.37 W/m2 SCT
12:39 21.4 °F 16.8 °F 1014.1 in Calm   1.9 mph 75% 0.0 in WeatherDisplay:10.37 W/m2 SCT
12:44 21.8 °F 17.2 °F 1014.2 in WSW 2.3 mph 13.0 mph 75% 0.0 in WeatherDisplay:10.37 W/m2 SCT
12:49 21.8 °F 16.8 °F 1014.3 in Calm     73% 0.0 in WeatherDisplay:10.37 W/m2 SCT
12:54 21.6 °F 17.0 °F 1014.2 in Calm     75% 0.0 in WeatherDisplay:10.37 W/m2 SCT
12:59 21.5 °F 17.1 °F 1014.1 in NNW 0.2 mph 1.6 mph 76% 0.0 in WeatherDisplay:10.37 W/m2 SCT
13:04 21.3 °F 17.7 °F 1014.1 in Calm     80% 0.6 in WeatherDisplay:10.37 W/m2 RA
13:09 21.0 °F 18.0 °F 1014.1 in Calm     83% 1.2 in WeatherDisplay:10.37 W/m2 RA
13:14 20.5 °F 17.9 °F 1014.1 in Calm     85% 1.6 in WeatherDisplay:10.37 W/m2 RA
13:19 20.1 °F 17.7 °F 1014.1 in Calm     86% 1.8 in WeatherDisplay:10.37 W/m2 RA
13:24 19.9 °F 17.8 °F 1014.1 in Calm     88% 2.0 in WeatherDisplay:10.37 W/m2 RA
13:29 19.8 °F 17.9 °F 1014.2 in Calm     89% 2.0 in WeatherDisplay:10.37 W/m2 RA
13:34 19.7 °F 17.8 °F 1014.1 in Calm     89% 2.0 in WeatherDisplay:10.37 W/m2 SCT
13:39 19.6 °F 17.9 °F 1014.1 in Calm     90% 2.0 in WeatherDisplay:10.37 W/m2 FEW
13:44 19.6 °F 17.9 °F 1014.3 in Calm     90% 2.2 in WeatherDisplay:10.37 W/m2 RA
13:49 19.6 °F 17.9 °F 1014.2 in Calm     90% 2.2 in WeatherDisplay:10.37 W/m2 RA
13:54 19.7 °F 18.0 °F 1014.2 in Calm     90% 2.2 in WeatherDisplay:10.37 W/m2 FEW
13:59 19.7 °F 18.1 °F 1014.2 in Calm     90% 2.4 in WeatherDisplay:10.37 W/m2 RA
14:04 19.7 °F 18.1 °F 1014.2 in Calm     90% 1.8 in WeatherDisplay:10.37 W/m2 RA
14:09 20.2 °F 18.5 °F 1014.3 in Calm     90% 1.2 in WeatherDisplay:10.37 W/m2 SCT
14:14 20.1 °F 18.4 °F 1014.1 in Calm     90% 0.8 in WeatherDisplay:10.37 W/m2 SCT
14:19 20.2 °F 18.5 °F 1014.2 in Calm     90% 0.6 in WeatherDisplay:10.37 W/m2 SCT
14:24 20.2 °F 18.6 °F 1014.1 in Calm     90% 0.4 in WeatherDisplay:10.37 W/m2 SCT
14:29 20.2 °F 18.6 °F 1014.1 in Calm     90% 0.4 in WeatherDisplay:10.37 W/m2 SCT
14:34 20.3 °F 18.8 °F 1014.1 in Calm     91% 0.4 in WeatherDisplay:10.37 W/m2 BKN
14:39 20.2 °F 18.7 °F 1014.1 in Calm     91% 1.0 in WeatherDisplay:10.37 W/m2 RA
14:44 20.0 °F 18.3 °F 1014.2 in Calm     90% 1.4 in WeatherDisplay:10.37 W/m2 RA
14:49 19.9 °F 18.4 °F 1014.2 in Calm     91% 1.4 in WeatherDisplay:10.37 W/m2 RA
14:54 19.8 °F 18.3 °F 1014.1 in Calm     91% 1.4 in WeatherDisplay:10.37 W/m2 BKN
14:59 19.8 °F 18.1 °F 1014.1 in Calm     90% 1.2 in WeatherDisplay:10.37 W/m2 BKN
15:04 19.7 °F 18.1 °F 1014.0 in Calm     90% 1.2 in WeatherDisplay:10.37 W/m2 BKN
15:09 19.7 °F 18.0 °F 1013.9 in Calm     90% 1.2 in WeatherDisplay:10.37 W/m2 BKN
15:14 19.7 °F 18.0 °F 1013.9 in Calm     90% 1.2 in WeatherDisplay:10.37 W/m2 BKN
15:19 19.8 °F 18.2 °F 1013.8 in Calm     90% 1.2 in WeatherDisplay:10.37 W/m2 BKN
15:24 19.9 °F 18.3 °F 1013.7 in Calm     90% 1.2 in WeatherDisplay:10.37 W/m2 BKN
15:29 20.0 °F 18.3 °F 1013.7 in Calm     90% 1.2 in WeatherDisplay:10.37 W/m2 BKN
15:34 20.2 °F 18.5 °F 1013.7 in Calm     90% 1.2 in WeatherDisplay:10.37 W/m2 BKN
15:39 20.3 °F 18.6 °F 1013.6 in Calm     90% 0.6 in WeatherDisplay:10.37 W/m2 BKN
15:44 20.3 °F 18.6 °F 1013.5 in Calm     90% 0.0 in WeatherDisplay:10.37 W/m2 BKN
15:49 20.2 °F 18.5 °F 1013.4 in Calm     90% 0.0 in WeatherDisplay:10.37 W/m2 BKN
15:54 20.2 °F 18.6 °F 1013.3 in Calm     90% 0.0 in WeatherDisplay:10.37 W/m2 BKN
15:59 20.4 °F 18.7 °F 1013.3 in Calm     90% 0.0 in WeatherDisplay:10.37 W/m2 BKN
16:04 20.4 °F 18.7 °F 1013.3 in Calm     90% 0.0 in WeatherDisplay:10.37 W/m2 BKN
16:09 20.4 °F 18.9 °F 1013.2 in Calm     91% 0.0 in WeatherDisplay:10.37 W/m2 BKN
16:14 20.5 °F 18.8 °F 1013.1 in Calm     90% 0.0 in WeatherDisplay:10.37 W/m2 BKN
16:19 20.6 °F 18.8 °F 1013.1 in Calm     90% 0.0 in WeatherDisplay:10.37 W/m2 BKN
16:24 20.7 °F 19.2 °F 1013.1 in Calm     91% 0.0 in WeatherDisplay:10.37 W/m2 BKN
16:29 20.6 °F 18.8 °F 1013.0 in Calm     90% 0.0 in WeatherDisplay:10.37 W/m2 BKN
16:34 20.5 °F 18.8 °F 1013.0 in Calm     90% 0.0 in WeatherDisplay:10.37 W/m2 BKN
16:39 20.4 °F 18.7 °F 1013.0 in Calm     90% 0.0 in WeatherDisplay:10.37 W/m2 BKN
16:44 20.5 °F 19.0 °F 1012.9 in Calm     91% 0.0 in WeatherDisplay:10.37 W/m2 BKN
16:49 20.4 °F 18.7 °F 1012.9 in Calm     90% 0.0 in WeatherDisplay:10.37 W/m2 BKN
16:54 20.4 °F 18.9 °F 1013.0 in Calm     91% 0.0 in WeatherDisplay:10.37 W/m2 BKN
16:59 20.2 °F 18.7 °F 1013.0 in Calm     91% 0.0 in WeatherDisplay:10.37 W/m2 BKN
17:04 20.1 °F 18.4 °F 1012.9 in Calm     90% 0.0 in WeatherDisplay:10.37 W/m2 BKN
17:09 19.9 °F 18.3 °F 1012.9 in Calm     90% 0.0 in WeatherDisplay:10.37 W/m2 BKN
17:14 19.8 °F 18.2 °F 1012.9 in Calm     90% 0.0 in WeatherDisplay:10.37 W/m2 BKN
17:19 19.8 °F 18.1 °F 1012.9 in Calm     90% 0.0 in WeatherDisplay:10.37 W/m2 BKN
17:24 19.7 °F 18.0 °F 1012.8 in Calm     90% 0.0 in WeatherDisplay:10.37 W/m2 BKN
17:29 19.6 °F 17.9 °F 1012.8 in Calm     90% 0.0 in WeatherDisplay:10.37 W/m2 BKN
17:34 19.4 °F 17.7 °F 1012.8 in Calm     90% 0.0 in WeatherDisplay:10.37 W/m2 BKN
17:39 19.3 °F 17.7 °F 1012.8 in Calm     90% 0.0 in WeatherDisplay:10.37 W/m2 BKN
17:44 19.3 °F 17.8 °F 1012.8 in Calm     91% 0.0 in WeatherDisplay:10.37 W/m2 BKN
17:49 19.3 °F 17.8 °F 1012.7 in Calm     91% 0.0 in WeatherDisplay:10.37 W/m2 BKN
17:54 19.2 °F 17.7 °F 1012.8 in Calm     91% 0.0 in WeatherDisplay:10.37 W/m2 BKN
17:59 19.0 °F 17.3 °F 1012.7 in Calm     90% 0.0 in WeatherDisplay:10.37 W/m2 BKN
18:04 18.9 °F 17.2 °F 1012.7 in Calm     90% 0.0 in WeatherDisplay:10.37 W/m2 BKN
18:09 18.8 °F 17.3 °F 1012.7 in Calm     91% 0.0 in WeatherDisplay:10.37 W/m2 BKN
18:14 18.7 °F 17.2 °F 1012.6 in Calm     91% 0.0 in WeatherDisplay:10.37 W/m2 BKN
18:19 18.7 °F 17.1 °F 1012.5 in Calm     90% 0.0 in WeatherDisplay:10.37 W/m2 BKN
18:24 18.7 °F 17.0 °F 1012.4 in Calm     90% 0.0 in WeatherDisplay:10.37 W/m2 BKN
18:29 18.7 °F 17.0 °F 1012.4 in Calm     90% 0.0 in WeatherDisplay:10.37 W/m2 BKN
18:34 18.7 °F 17.0 °F 1012.3 in Calm     90% 0.0 in WeatherDisplay:10.37 W/m2 CLR
18:39 18.6 °F 17.1 °F 1012.3 in Calm     91% 0.0 in WeatherDisplay:10.37 W/m2 CLR
18:44 18.6 °F 16.9 °F 1012.3 in Calm     90% 0.0 in WeatherDisplay:10.37 W/m2 CLR
18:49 18.6 °F 17.1 °F 1012.3 in Calm     91% 0.0 in WeatherDisplay:10.37 W/m2 CLR
18:54 18.5 °F 17.0 °F 1012.3 in Calm     91% 0.0 in WeatherDisplay:10.37 W/m2 CLR
18:59 18.5 °F 17.0 °F 1012.3 in Calm     91% 0.0 in WeatherDisplay:10.37 W/m2 CLR
19:04 18.4 °F 16.9 °F 1012.4 in Calm     91% 0.0 in WeatherDisplay:10.37 W/m2 CLR
19:09 18.3 °F 16.8 °F 1012.4 in Calm     91% 0.0 in WeatherDisplay:10.37 W/m2 CLR
19:14 18.3 °F 16.8 °F 1012.2 in Calm     91% 0.0 in WeatherDisplay:10.37 W/m2 CLR
19:19 18.3 °F 16.8 °F 1012.2 in Calm     91% 0.0 in WeatherDisplay:10.37 W/m2 CLR
19:24 18.2 °F 16.7 °F 1012.2 in Calm     91% 0.0 in WeatherDisplay:10.37 W/m2 CLR
19:29 18.2 °F 16.7 °F 1012.1 in Calm     91% 0.0 in WeatherDisplay:10.37 W/m2 CLR
19:34 18.2 °F 16.7 °F 1012.2 in Calm     91% 0.0 in WeatherDisplay:10.37 W/m2 CLR
19:39 18.2 °F 16.7 °F 1012.2 in Calm     91% 0.0 in WeatherDisplay:10.37 W/m2 CLR
19:44 18.2 °F 16.7 °F 1012.2 in Calm     91% 0.0 in WeatherDisplay:10.37 W/m2 CLR
19:49 18.2 °F 16.7 °F 1012.2 in Calm     91% 0.0 in WeatherDisplay:10.37 W/m2 CLR
19:54 18.2 °F 16.7 °F 1012.2 in Calm     91% 0.2 in WeatherDisplay:10.37 W/m2 RA
19:58 18.2 °F 16.7 °F 1012.1 in Calm     91% 0.2 in WeatherDisplay:10.37 W/m2 RA
20:04 18.2 °F 16.7 °F 1012.1 in Calm     91% 0.2 in WeatherDisplay:10.37 W/m2 SCT
20:09 18.2 °F 16.7 °F 1012.1 in Calm     91% 0.2 in WeatherDisplay:10.37 W/m2 SCT
20:14 18.1 °F 16.6 °F 1012.0 in Calm     91% 0.2 in WeatherDisplay:10.37 W/m2 SCT
20:19 17.9 °F 16.4 °F 1012.0 in Calm     91% 0.2 in WeatherDisplay:10.37 W/m2 SCT
20:24 17.8 °F 16.3 °F 1012.0 in Calm   1.9 mph 91% 0.2 in WeatherDisplay:10.37 W/m2 SCT
20:29 17.7 °F 16.2 °F 1012.0 in Calm     91% 0.2 in WeatherDisplay:10.37 W/m2 SCT
20:34 17.6 °F 16.1 °F 1012.0 in Calm     91% 0.2 in WeatherDisplay:10.37 W/m2 SCT
20:39 17.4 °F 15.9 °F 1012.0 in Calm     91% 0.2 in WeatherDisplay:10.37 W/m2 SCT
20:44 17.2 °F 15.7 °F 1012.0 in Calm     91% 0.2 in WeatherDisplay:10.37 W/m2 SCT
20:49 17.1 °F 15.6 °F 1012.1 in Calm     91% 0.2 in WeatherDisplay:10.37 W/m2 SCT
20:54 17.0 °F 15.5 °F 1012.1 in Calm     91% 0.0 in WeatherDisplay:10.37 W/m2 SCT
Tuulensuunkaari, Veikkola, Suomi
Compliments of Weather Underground - 2.5 mb